Weather History for Jacksonville Craig, FL

Change the Weather History Date:

Friday, August 30, 2013

  Actual Average Record
Temperature  
Mean Temperature 85 °F -  
Max Temperature 93 °F 86 °F 93 °F (1997)
Min Temperature 77 °F 70 °F 70 °F (2010)
Cooling Degree Days 20    
Growing Degree Days 35 (Base 50)    
Moisture  
Dew Point 72 °F    
Average Humidity 69    
Maximum Humidity 84    
Minimum Humidity 44    
Precipitation  
Precipitation 0.00 in - - ()
Sea Level Pressure  
Sea Level Pressure 29.94 in    
Wind  
Wind Speed 4 mph (SSW)    
Max Wind Speed 13 mph    
Max Gust Speed -    
Visibility 10 miles    
Events      
Averages and records for this station are not official NWS values.
T = Trace of Precipitation, MM = Missing Value Source: NWS Daily Summary

Daily Weather History Graph

Daily Weather History Graph

Search for Another Location

Airport:

Trip Planner

Search our weather history database for the weather conditions in past years. The results will help you decide how hot, cold, wet, or windy it might be!

Date:

Astronomy

Aug. 30, 2013 Rise Set
Actual Time 7:01 AM EDT 7:50 PM EDT
Civil Twilight 6:37 AM EDT 8:15 PM EDT
Nautical Twilight 6:08 AM EDT 8:44 PM EDT
Astronomical Twilight 5:38 AM EDT 9:13 PM EDT
Moon 1:51 AM EDT (8/30) 3:53 PM EDT (8/30)
Length of Visible Light 13h 38m
Length of Day
12h 49m
Waning Crescent, 29% of the Moon is Illuminated
Aug 30
Waning Crescent
Sep 5
New
Sep 12
First Quarter
Sep 19
Full
Sep 26
Last Quarter

Hourly Weather History & Observations

Time (EDT) Temp. Heat Index Dew Point Humidity Pressure Visibility Wind Dir Wind Speed Gust Speed Precip Events Conditions
12:53 AM 79.0 °F - 71.1 °F 77% 29.96 in 10.0 mi South 4.6 mph - N/A   Clear
1:53 AM 79.0 °F - 71.1 °F 77% 29.94 in 10.0 mi SSW 3.5 mph - N/A   Clear
2:53 AM 78.1 °F - 72.0 °F 81% 29.94 in 10.0 mi SSW 4.6 mph - 0.00 in   Clear
3:53 AM 78.1 °F - 72.0 °F 81% 29.93 in 10.0 mi SW 5.8 mph - N/A   Clear
4:53 AM 78.1 °F - 72.0 °F 81% 29.93 in 10.0 mi SW 4.6 mph - N/A   Clear
5:53 AM 78.1 °F - 72.0 °F 81% 29.93 in 10.0 mi Calm Calm - N/A   Clear
6:53 AM 78.1 °F - 72.0 °F 81% 29.94 in 10.0 mi West 4.6 mph - N/A   Clear
7:53 AM 77.0 °F - 72.0 °F 84% 29.97 in 8.0 mi Calm Calm - N/A   Clear
8:53 AM 81.0 °F 85.8 °F 73.0 °F 77% 29.97 in 10.0 mi WSW 3.5 mph - N/A   Clear
9:53 AM 86.0 °F 93.8 °F 73.9 °F 67% 29.98 in 10.0 mi West 4.6 mph - 0.00 in   Clear
10:53 AM 89.1 °F 97.0 °F 73.0 °F 59% 29.98 in 10.0 mi Calm Calm - N/A   Clear
11:53 AM 91.0 °F 97.6 °F 71.1 °F 52% 29.98 in 10.0 mi Variable 4.6 mph - N/A   Clear
12:53 PM 91.9 °F 97.4 °F 70.0 °F 48% 29.96 in 10.0 mi NW 5.8 mph - N/A   Clear
1:53 PM 91.0 °F 97.6 °F 71.1 °F 52% 29.94 in 10.0 mi Calm Calm - N/A   Scattered Clouds
2:53 PM 90.0 °F 96.9 °F 72.0 °F 55% 29.91 in 10.0 mi SSE 6.9 mph - N/A   Partly Cloudy
3:53 PM 93.0 °F 99.0 °F 70.0 °F 47% 29.88 in 10.0 mi South 8.1 mph - N/A   Clear
4:53 PM 93.9 °F 99.1 °F 69.1 °F 44% 29.87 in 10.0 mi South 8.1 mph - N/A   Clear
5:53 PM 88.0 °F 93.8 °F 71.1 °F 57% 29.90 in 10.0 mi NNE 12.7 mph - N/A   Mostly Cloudy
6:53 PM 81.0 °F 84.9 °F 71.1 °F 72% 29.92 in 10.0 mi ENE 3.5 mph - N/A   Clear
7:53 PM 80.1 °F 83.8 °F 72.0 °F 76% 29.91 in 9.0 mi ENE 4.6 mph - N/A   Clear
8:53 PM 81.0 °F 85.8 °F 73.0 °F 77% 29.93 in 10.0 mi East 4.6 mph - 0.00 in   Partly Cloudy
9:53 PM 80.1 °F 84.2 °F 73.0 °F 79% 29.95 in 10.0 mi East 3.5 mph - N/A   Partly Cloudy
10:53 PM 81.0 °F 85.8 °F 73.0 °F 77% 29.95 in 10.0 mi WNW 9.2 mph - N/A   Partly Cloudy
11:53 PM 78.1 °F - 72.0 °F 81% 29.94 in 9.0 mi NNW 3.5 mph - N/A   Clear